Regional Weather Roundup
Issued by NWS Kansas City/Pleasant Hill, MO

Home | Current Version | Previous Version | Graphics & Text | Print | Product List | Glossary Off
Versions: 1 2 3 4 5 6 7 8 9 10 11 12 13 14 15 16 17 18 19 20 21 22 23 24 25 26 27 28 29 30 31 32 33 34 35 36 37 38 39 40 41 42 43 44 45 46 47 48 49 50

000
ASUS43 KEAX 301510
RWREAX

WEATHER ROUNDUP FOR EASTERN KANSAS AND NORTHWEST MISSOURI
NATIONAL WEATHER SERVICE KANSAS CITY/PLEASANT HILL MO
1000 AM CDT TUE JUN 30 2015

KSZ040-057-103>105-MOZ028-029-037-043-301600-
...KANSAS CITY METROPOLITAN AREA...

CITY           SKY/WX    TMP DP  RH WIND       PRES   REMARKS
K.C. INTL      PTSUNNY   78  65  63 NW8       29.95F
K.C. DOWNTOWN  SUNNY     81  66  60 NW5       29.93F
LEES SUMMIT    SUNNY     78  65  63 W6        29.96S
OLATHE - IXD   SUNNY     78  64  61 NW9       29.97S
OLATHE - OJC   SUNNY     79  63  57 NW5       29.96S
LAWRENCE       SUNNY     77  64  64 W8        29.96S

$$

MOZ001>008-011>017-020>025-030>033-038>040-044>046-053-054-301600-
...NORTHERN AND CENTRAL MISSOURI...

CITY           SKY/WX    TMP DP  RH WIND       PRES   REMARKS
ST. JOSEPH     SUNNY     78  67  68 CALM      29.95S
MOSBY          SUNNY     77  64  65 CALM      29.94F
HARRISONVILLE  SUNNY     82  68  61 W6        29.98S
WARRENSBURG    PTSUNNY   77  64  65 W6        29.94F
WHITEMAN AFB   PTSUNNY   77  67  70 W6        29.94R
CLINTON        PTSUNNY   77  66  69 W6        29.96S
SEDALIA        MOSUNNY   79  65  62 W7        29.95S
WARSAW         FAIR      77  66  69 W3        29.97S
CHILLICOTHE      N/A     77  67  71 NW6       29.93S
KIRKSVILLE     SUNNY     73  64  73 W9        29.92S

$$

MOZ041-047>049-056>058-063>065-088>090-097-301600-
...EASTERN AND SOUTHERN MISSOURI...

CITY           SKY/WX    TMP DP  RH WIND       PRES   REMARKS
ST. LOUIS INTL MOSUNNY   78  66  66 W8        29.92R
SPIRIT OF STL  CLOUDY    75  69  81 W8        29.91R
COLUMBIA       SUNNY     74  68  81 SW6       29.94R
JEFFERSON CITY SUNNY     74  67  78 SW6       29.93S
MEXICO         SUNNY     75  72  88 W6        29.93R
ROLLA          SUNNY     73  68  84 SW7       29.95S
OSAGE BEACH      N/A     75  64  69 W6        29.93F
SPRINGFIELD    MOSUNNY   78  64  61 W9        30.00S
BRANSON        CLOUDY    75  66  73 CALM      30.03R
NEVADA         MOSUNNY   75  66  73 W7        29.99S
JOPLIN         MOSUNNY   77  67  71 W5        30.00S
WEST PLAINS    SUNNY     74  65  73 W8        30.00S
MALDEN         SUNNY     81  66  61 W12       29.94S

$$

IAZ060-094-KSZ022-034>040-054-083-096-NEZ052-066-093-301600-
...KANSAS...SOUTHEAST NEBRASKA AND IOWA...

CITY           SKY/WX    TMP DP  RH WIND       PRES   REMARKS
TOPEKA         SUNNY     77  64  64 W5        29.96S
MANHATTAN      SUNNY     81  66  60 SW6       29.96S
EMPORIA        SUNNY     82  65  56 W6        29.98S
CHANUTE        SUNNY     79  66  64 NW3       29.99S
WICHITA        MOSUNNY   84  64  50 VRB3      30.00S
OMAHA          CLOUDY    75  65  70 CALM      29.94F HAZE
LINCOLN        PTSUNNY   79  65  62 CALM      29.97F HAZE
FALLS CITY     SUNNY     78  67  68 NW6       29.95S
LAMONI         SUNNY     74  65  73 NW6       29.93S
DES MOINES     CLOUDY    73  65  75 N7        29.91F

$$




USA.gov is the U.S. government's official web portal to all federal, state and local government web resources and services.